Regional Weather Roundup
Issued by NWS Wakefield, VA

Home | Current Version | Previous Version | Text Only | Print | Product List | Glossary Off
Versions: 1 2 3 4 5 6 7 8 9 10 11 12 13 14 15 16 17 18 19 20 21 22 23 24 25 26 27

000
ASUS41 KAKQ 270915
RWRAKQ

REGIONAL WEATHER ROUNDUP
NATIONAL WEATHER SERVICE WAKEFIELD VA
500 AM EDT MON MAR 27 2017

Note: "fair" indicates few or no clouds below 12,000 feet with no
significant weather and/or obstructions to visibility. * = Denotes
station may not report precipitation (e.g., rain,snow,etc.),
thunder or fog.

VAZ042-051-052>054-056-271000-
NORTHERN VIRGINIA

CITY           SKY/WX    TMP DP  RH WIND       PRES   REMARKS
WASH NATIONAL  CLOUDY    47  46  97 E3        30.11F FOG
DULLES         DRZL/FOG  46  45  96 CALM      30.10S VSB 1/2
FORT BELVOIR   CLOUDY    46  45  96 CALM      30.10F FOG
QUANTICO       FOG       48  48 100 E6        30.11F VSB 1/2
FREDERICKSBRG* FOG       49  49 100 CALM      30.09S VSB 1/2
STAFFORD*      FOG       47  47 100 CALM      30.13F VSB 1/4
WARRENTON      FOG       48  46  91 CALM      30.08F VSB 1/2
CULPEPER*      FOG       49  49 100 CALM      30.10F VSB 1/2
MANASSAS*      FOG       46  46 100 CALM      30.10F VSB 1/2
LEESBURG*      FOG       46  46 100 CALM      30.11S VSB 1/2
WINCHESTER     LGT RAIN  45  45 100 E8        30.06F
FRONT ROYAL*   CLOUDY    46  46 100 N6        30.08R
LURAY*         LGT RAIN  50  50 100 CALM      30.05S
$$

VAZ048-049-060>072-079>083-271000-
CENTRAL AND SOUTH CENTRAL VIRGINIA

CITY           SKY/WX    TMP DP  RH WIND       PRES   REMARKS
RICHMOND       MOCLDY    54  53  97 SE3       30.09F
CHESTERFIELD*    N/A    N/A N/A N/A CALM      30.10F
PETERSBURG*    PTCLDY    50  48  94 CALM      30.11S
HANOVER        MOCLDY    52  49  89 S5        30.10F
TAPPAHANNOCK*  CLEAR     50  50 100 CALM      30.10S
QUINTON*       PTSUNNY   54  54 100 S7        30.10S
CHARLOTTSVILLE FOG       50  49  96 CALM      30.08F VSB 1
GORDONSVILLE*  FOG       48  48 100 CALM      30.08F VSB 1
ORANGE*        FOG       46  46 100 CALM      30.11S VSB 1/2
LOUISA*        FOG       54  52  94 CALM      30.08S VSB 1/4
BUMPASS*       CLOUDY    51  51 100 CALM      30.09F
FARMVILLE*     FOG       53  53 100 CALM      30.08F VSB 1/2
CREWE*         CLOUDY    55  55 100 CALM      30.08F
FORT PICKETT*  CLOUDY    58  54  87 S5        30.09F
CHASE CITY*    CLOUDY    59  58  94 CALM      30.09F
CLARKSVILLE*   CLOUDY    61  55  82 S5        30.09F
SOUTH HILL*    CLOUDY    58  54  85 S7        30.16S
LAWRENCEVILLE* FAIR      57  53  85 SW3       30.10S
EMPORIA*       CLEAR     55  54  94 SE3       30.12F
$$

VAZ088>098-271000-
SOUTHEAST VIRGINIA

CITY           SKY/WX    TMP DP  RH WIND       PRES   REMARKS
NORFOLK        CLEAR     58  53  84 S7        30.12F
VIRGINIA BEACH PTCLDY    56  51  84 S6        30.12F
NORFOLK NAVAL  PTCLDY    59  52  77 S6        30.13F
WEST POINT*    CLOUDY    55  53  91 S5        30.12S
SALUDA*        FAIR      48  48 100 SE5       30.10F
NEWPORT NEWS   CLEAR     58  53  84 S7        30.12S
LANGLEY AFB    PTCLDY    56  54  91 S7        30.11F
FORT EUSTIS    CLEAR     55  51  87 SE5       30.09F
WILLIAMSBURG*  CLEAR     55  54  94 CALM      30.12S
HR EXEC AP*    FAIR      55  52  88 S5        30.11F
FRANKLIN*      CLEAR     54  52  93 S3        30.13S
US460-WAKEFLD  CLEAR     53  52  96 CALM      30.11F
$$

VAZ020-022-025-037-045-271000-
WEST CENTRAL AND SOUTHWEST VIRGINIA

CITY           SKY/WX    TMP DP  RH WIND       PRES   REMARKS
STAUNTON*      CLOUDY    50  49  95 CALM      30.07S
WAYNESBORO*    CLOUDY    56  55  95 S6        30.05F
HOT SPRINGS VA LGT RAIN  52  52 100 SW12G18   30.08S
LYNCHBURG      CLOUDY    51  50  96 CALM      30.10S FOG
DANVILLE       LGT RAIN  56  56 100 CALM      30.10S
SOUTH BOSTON*  CLOUDY    62  56  83 S3        30.09S
MARTINSVILLE   CLOUDY    56  56  98 CALM      30.11S
ROANOKE        CLOUDY    54  54 100 SE7       30.09F
BLACKSBURG     CLOUDY    58  55  89 S5        30.10S
DUBLIN*        CLOUDY    59  56  90 S6        30.08S
MARION*        CLOUDY    55  54  96 CALM      30.09S
HILLSVILLE*    CLOUDY    55  55 100 CALM      30.08S FOG
RICHLANDS*     CLOUDY    58  52  81 SW5       30.06S
WISE*          MOCLDY    55  48  76 SW6       30.07S
ABINGDON*      MOCLDY    54  52  92 CALM      30.06S
$$

MDZ021>025-VAZ099-100-271000-
SOUTHERN MARYLAND AND THE DELMARVA PENINSULA

CITY           SKY/WX    TMP DP  RH WIND       PRES   REMARKS
PATUXENT RIVER CLOUDY    47  47 100 SE5       30.10F FOG
BAY BRIDGE APT FOG       46  46 100 SE5       30.11S VSB 1/2
LEONARDTOWN    CLOUDY    48  46  93 SE5       30.11S
DOVER          FOG       46  46 100 E6        30.11F VSB 3/4
GEORGETOWN     CLOUDY    46  45  96 SE3       30.13F FOG
EASTON         CLOUDY    47  46  95 SE3       30.13F FOG
CAMBRIDGE      FOG       48  46  93 SE6       30.10F VSB 3/4
SALISBURY      PTCLDY    47  47 100 SE5       30.12S
OCEAN CITY     PTCLDY    43  43 100 CALM      30.14S FOG
WALLOPS ISLAND PTCLDY    46  46 100 S3        30.14F
ACCOMACK*      CLEAR     51  49  95 S7        30.12F
$$

NCZ012>017-030>032-271000-
NORTH CENTRAL AND EASTERN NORTH CAROLINA

CITY           SKY/WX    TMP DP  RH WIND       PRES   REMARKS
ROANOKE RAPIDS FAIR      54  54 100 S3        30.11F
RALEIGH        CLOUDY    62  54  74 SW7       30.11S
ELIZABETH CITY PTCLDY    53  51  93 SE3       30.14F
AHOSKIE*         N/A     52  51  98 CALM      30.13S FOG
EDENTON*       PTCLDY    57  54  88 CALM      30.14S
CURRITUCK*     CLEAR     55  55 100 CALM      30.15S
KILL DEVIL HLS NOT AVBL
MANTEO         CLEAR     58  54  88 SW3       30.15S
CAPE HATTERAS  PTCLDY    67  52  58 S9        30.14F
TARBORO*       NOT AVBL
GOLDSBORO      CLEAR     57  57 100 SE3       30.10F
WASHINGTON     CLEAR     56  54  94 CALM      30.14S
GREENVILLE     CLEAR     55  55 100 S3        30.13F
NEW BERN       PTCLDY    50  50 100 CALM      30.14S
WILMINGTON     CLEAR     51  51 100 CALM      30.12S FOG
$$

VAZ048-271000-
ELSEWHERE

CITY           SKY/WX    TMP DP  RH WIND       PRES   REMARKS
HARRISBURG PA  LGT RAIN  42  42 100 CALM      30.12S
BALTIMORE      DRZL/FOG  44  44 100 E3        30.10F VSB 1/4
ANNAPOLIS      FOG       47  46  97 E3        30.10F VSB 1/2
ANDREWS AFB    FOG       45  45  99 CALM      30.09F VSB 1/2
PHILADELPHIA   FOG       42  41  96 E8        30.14F VSB 3/4
HENDERSON NC   CLOUDY    56  51  84 S5        30.10S
GREENSBORO     LGT RAIN  58  58 100 SW7       30.10R FOG
ROCKY MOUNT    CLEAR     53  53 100 S3        30.12S
$$

VAZ100-271000-
MARINE

STATION/POSITION TIME  TEMP    WIND        PRES    WAVE   SWELL
                       AIR SEA DIR/SP/G            HT/PER HT/PER
                 (UTC) (F)     (DEG/KT/KT) (MB)    (FT/S) (FT/S)
CAPE MAY NJ      0848   45 44   80/  5/  8 1020.0F
LEWES DE         0848   45 44  130/  2/  3 1020.3F
OCEAN-CITY-INLET 0842   44 46  120/  2/  3 1020.8F
WACHAPREAGUE VA  0842   50 54  210/  2/  3 1019.9F
THOMAS POINT MD  0900   45 45  110/  6/  6   N/A
GOOSES REEF MD   0900   46 46     CALM     1020.0
COVE POINT MD    0842   46     190/  9/ 10 1019.7F
SOLOMONS ISLAND  0842   47 47  120/  5/  7   N/A
BISHOPS HEAD MD  0848   48 51  130/  6/  7 1019.6F
PINEY POINT MD   0848          140/  7/  8   N/A
POTOMAC MD       0900   47 46  150/  6/  8 1018.3    0
CAMBRIDGE MD     0848   47 46  120/  4/  6 1018.7F
LEWISETTA VA     0842   49 50  140/  4/  5 1018.9F
RAPPAHANNOCK LGT 0848          160/ 12/ 12 1020.3F
STINGRAY PT      0850   50     180/  8/  8 1020.0F
YORK RVR RNG VA  0842   55     190/ 11/ 11 1019.1F
YORKTOWN VA      0842   59 50  200/  6/  9 1019.3F
JAMESTOWN VA     0900   56 54  100/  4/  4   N/A     0
DOMINION TERM VA 0842   56     170/  4/  5 1019.9F
KIPTOPEKE VA     0848      49  160/  9/ 10   N/A
CHES BAY BRIDGE  0842   58 49  180/  8/  9 1020.0F
CAPE HENRY VA    0842   59     180/  7/  9   N/A
WILLOUBY STN VA  0842   59     190/ 12/ 13 1020.6F
S CRANEY ISL VA  0842   56     190/  5/  6 1019.8F
CAPE HENRY BUOY  0842      50                N/A     3/ 6
CAPE CHARLES BUO 0851      48                N/A     3/ 7
OFFSHORE WE BUOY 0851      50                N/A     4/ 7   2/18
64NM E OF VA BCH 0850   55 51  170/  6/  8 1020.8F   4/ 7   3/ 7
DUCK PIER NC     0842   60 50  190/  8/ 10 1020.1F
44100 DUCK FRF   0835      49                N/A     4/ 7
44056 DUCK FRF   0830      51                N/A     3/ 7   2/18
OREGON INLET NC  0842   55 56  130/  3/  4 1020.7F
HATTERAS NC      0842   67 60  160/  8/ 12 1020.3F
DIAMOND SHLS NC  0850   69 76  170/ 10/ 14 1021.0F   4/ 8   3/ 8
CAPE LOOKOUT NC  0900   63     170/  3/  3 1020.0F
$$




USA.gov is the U.S. government's official web portal to all federal, state and local government web resources and services.